TimeCST,TemperatureF,Dew PointF,Humidity,Sea Level PressureIn,VisibilityMPH,Wind Direction,Wind SpeedMPH,Gust SpeedMPH,PrecipitationIn,Events,Conditions,WindDirDegrees,DateUTC
12:53 AM,21.0,15.1,78,30.22,10.0,South,9.2,-,N/A,,Clear,170,2013-01-07 06:53:00
1:53 AM,21.9,16.0,78,30.21,10.0,South,11.5,-,N/A,,Clear,180,2013-01-07 07:53:00
2:53 AM,23.0,16.0,74,30.21,10.0,South,17.3,-,N/A,,Clear,190,2013-01-07 08:53:00
3:53 AM,25.0,17.1,72,30.17,10.0,South,18.4,-,N/A,,Clear,180,2013-01-07 09:53:00
4:53 AM,25.0,17.1,72,30.14,10.0,South,19.6,-,N/A,,Clear,180,2013-01-07 10:53:00
5:53 AM,25.0,17.1,72,30.12,10.0,South,18.4,-,N/A,,Clear,190,2013-01-07 11:53:00
6:53 AM,28.0,19.0,69,30.10,10.0,South,20.7,28.8,N/A,,Clear,190,2013-01-07 12:53:00
7:53 AM,30.0,19.9,66,30.09,10.0,South,18.4,26.5,N/A,,Clear,190,2013-01-07 13:53:00
8:53 AM,30.9,21.0,67,30.09,10.0,South,17.3,26.5,N/A,,Clear,190,2013-01-07 14:53:00
9:53 AM,33.1,21.9,64,30.09,10.0,SSW,19.6,-,N/A,,Clear,200,2013-01-07 15:53:00
10:53 AM,34.0,24.1,67,30.09,10.0,SSW,17.3,21.9,N/A,,Clear,210,2013-01-07 16:53:00
11:53 AM,37.9,25.0,60,30.06,10.0,SSW,13.8,23.0,N/A,,Clear,210,2013-01-07 17:53:00
1:53 PM,37.9,28.0,68,30.02,10.0,SW,11.5,-,N/A,,Clear,230,2013-01-07 19:53:00
2:53 PM,37.9,28.9,70,30.03,10.0,WSW,6.9,-,N/A,,Clear,240,2013-01-07 20:53:00
3:53 PM,36.0,28.9,76,30.04,10.0,SW,5.8,-,N/A,,Clear,220,2013-01-07 21:53:00
5:53 PM,35.1,28.0,76,30.04,10.0,SW,3.5,-,N/A,,Clear,220,2013-01-07 23:53:00
6:53 PM,32.0,26.1,79,30.04,10.0,SW,4.6,-,N/A,,Clear,230,2013-01-08 00:53:00
7:53 PM,32.0,26.1,79,30.05,10.0,SW,3.5,-,N/A,,Clear,230,2013-01-08 01:53:00
8:53 PM,30.9,26.1,82,30.04,10.0,South,4.6,-,N/A,,Clear,180,2013-01-08 02:53:00
9:53 PM,30.9,25.0,79,30.03,10.0,South,4.6,-,N/A,,Clear,180,2013-01-08 03:53:00
10:53 PM,28.0,24.1,85,30.03,10.0,Calm,Calm,-,N/A,,Clear,0,2013-01-08 04:53:00
11:53 PM,25.0,21.9,88,30.03,10.0,Calm,Calm,-,N/A,,Clear,0,2013-01-08 05:53:00